Wind_Speed
25 28 31 35 39 43 48 53 59 63 67 69 71 72 73 71 69 67 66 65 64 62 59 57 53 51 50 50 50 50 50 49 48 48 47 46 44 42 41 39 38 37 37 38
25 28 31 35 40 45 50 56 61 65 68 71 71 72 72 70 68 66 65 64 62 59 56 53 51 50 50 51 51 51 51 50 49 49 48 46 43 42 40 39 38 37 35 35
29 31 33 38 43 47 52 57 63 66 69 72 71 72 71 69 67 65 64 62 59 56 53 51 50 51 51 52 52 52 52 51 49 48 47 45 44 43 41 40 38 37 35 34
32 35 37 41 44 49 54 59 64 68 71 71 72 71 68 66 65 64 63 60 56 52 50 50 50 51 53 53 53 53 52 51 50 48 47 47 47 46 44 43 41 39 37 35
35 37 39 42 46 51 56 61 65 69 71 71 71 70 67 66 64 63 60 57 53 50 49 50 51 52 53 54 55 54 53 52 50 49 49 50 50 49 47 46 45 44 40 36
35 38 41 44 48 52 58 63 66 69 70 70 70 68 67 65 64 61 58 53 51 49 49 50 51 53 54 55 55 54 53 53 52 52 53 54 53 53 51 50 48 45 40 36
35 37 41 45 50 54 59 63 67 69 69 69 69 67 65 64 62 59 55 51 49 49 49 50 51 53 55 56 56 55 54 54 53 54 56 57 57 56 55 53 50 44 37 32
39 41 44 47 50 54 59 63 66 68 68 68 67 66 64 62 60 57 52 49 48 48 49 50 52 54 55 56 56 56 55 55 55 56 58 59 60 59 57 55 49 40 31 27
38 40 43 46 50 55 60 63 66 68 68 68 66 64 62 60 58 54 50 48 47 47 48 50 52 54 55 56 56 56 56 56 56 57 58 61 63 61 59 55 46 35 26 21
38 40 43 46 50 55 60 64 66 67 67 66 65 63 61 59 56 52 48 46 46 46 47 49 51 53 55 56 57 57 57 57 57 57 59 62 64 64 61 56 46 34 23 15
38 40 43 46 50 55 60 63 65 66 66 65 63 61 59 57 54 50 47 46 46 46 46 48 50 52 54 56 57 57 57 57 58 58 60 62 65 66 63 59 51 37 25 14
38 40 43 46 50 55 60 63 65 65 65 64 62 60 58 55 53 49 46 45 45 45 45 47 49 51 53 56 57 57 57 57 58 59 60 62 64 66 65 61 55 42 29 18
38 40 42 46 50 55 59 62 64 64 63 62 60 59 57 54 51 48 45 44 44 44 45 46 47 50 52 55 57 57 58 58 59 59 60 62 63 65 65 63 59 50 36 23
38 40 43 46 50 55 59 62 62 63 62 61 59 58 56 53 50 47 44 43 43 43 44 45 46 48 51 54 56 57 58 58 59 60 61 61 62 63 64 64 61 56 47 34
38 40 43 46 50 55 59 61 62 61 60 59 58 56 54 52 49 46 43 42 43 43 43 44 45 47 49 51 54 56 57 58 59 60 61 61 61 62 62 62 62 60 55 47
39 40 43 46 50 55 58 60 60 60 59 58 56 55 53 51 48 45 42 41 41 42 42 42 44 46 48 50 52 54 56 57 58 59 60 60 60 60 60 60 60 59 57 54
39 40 43 46 50 55 58 59 59 59 58 57 55 54 52 49 47 45 42 41 40 41 41 42 43 44 46 48 50 52 54 55 57 58 59 59 60 60 60 59 58 57 56 54
38 40 43 47 51 55 58 58 58 57 56 55 54 52 50 48 46 44 42 40 40 40 41 41 41 42 44 47 48 50 52 53 55 56 57 58 59 60 59 59 58 56 54 53
39 41 44 47 51 55 57 57 57 56 55 54 52 51 49 47 44 42 40 39 39 39 39 40 40 41 43 44 46 48 50 51 53 54 55 56 57 58 59 59 58 56 55 53
39 42 44 48 51 54 56 56 56 55 54 53 51 49 47 46 43 41 38 37 36 36 37 38 38 39 40 42 44 46 48 49 51 52 54 55 55 56 57 58 58 57 55 54
40 42 45 48 51 53 55 55 54 53 52 51 50 48 46 44 42 40 38 36 35 35 36 37 38 38 39 40 42 44 46 47 48 50 51 53 54 55 55 56 57 57 56 55
40 42 45 48 51 53 54 54 53 52 51 50 48 47 45 43 41 39 36 34 33 33 34 35 36 37 38 40 41 42 44 45 46 48 49 51 52 53 54 55 56 56 56 55
41 43 45 48 50 52 53 53 52 51 49 48 47 45 43 42 40 38 35 33 31 31 32 33 35 36 38 39 40 41 42 43 44 46 47 49 50 52 53 53 54 54 55 55
41 43 45 48 50 52 52 51 50 49 48 47 45 44 42 40 39 37 34 32 30 29 30 31 33 35 37 38 39 40 41 42 42 43 45 46 48 50 51 51 52 52 53 53
42 44 46 48 50 51 51 50 49 48 47 46 44 42 40 39 37 36 33 31 29 28 28 29 31 33 35 37 39 40 41 41 42 42 43 44 45 47 48 49 50 51 51 52
43 44 46 48 50 50 50 49 47 46 45 44 43 41 39 37 36 35 32 30 28 26 26 27 28 30 32 34 37 39 40 41 41 41 42 42 43 44 45 46 48 48 49 49
43 44 46 48 49 49 49 48 46 45 44 43 41 40 37 36 35 33 32 30 27 26 25 25 26 27 29 32 34 36 38 39 40 41 41 41 42 42 43 44 45 46 47 47
Wind_Direction
328 330 331 329 330 333 336 336 337 338 338 339 340 340 339 339 339 338 336 335 334 335 336 338 340 341 341 340 339 338 337 336 334 333 331 329 325 321 317 312 305 298 290 281
328 327 330 329 332 336 338 338 338 339 340 341 340 340 340 340 339 338 337 336 337 338 340 342 343 343 342 341 340 340 339 338 337 336 335 334 331 328 324 319 313 305 296 287
329 330 333 334 338 338 339 339 340 341 341 341 341 341 341 340 340 339 338 338 340 342 344 345 345 345 344 343 342 341 340 340 340 339 339 338 336 333 329 325 320 313 303 293
331 333 337 337 336 339 341 340 341 341 341 342 341 341 341 341 340 340 339 341 343 345 346 347 347 346 346 345 344 343 343 342 342 341 340 338 336 334 330 325 321 317 310 298
332 333 335 337 339 340 341 341 341 341 342 342 342 341 342 342 341 341 342 343 346 348 349 349 348 348 348 347 346 346 346 345 344 344 342 340 337 335 331 326 321 315 308 300
330 332 335 338 339 340 341 340 341 341 342 342 342 342 343 343 342 343 344 346 348 350 350 351 350 350 350 349 349 348 348 347 347 346 344 342 340 336 332 327 322 315 306 296
331 333 335 339 340 341 341 340 341 342 342 342 342 343 344 344 344 345 346 348 349 351 351 352 353 353 352 352 351 351 350 350 349 348 347 345 343 339 335 331 325 318 306 293
333 335 338 338 338 339 339 340 341 341 342 342 343 344 345 345 345 346 347 349 351 351 352 353 354 355 355 355 354 354 354 353 352 351 350 349 347 344 341 337 332 324 310 291
332 333 334 335 337 338 339 340 341 341 342 343 344 345 346 346 346 347 349 350 352 353 353 354 355 357 357 357 357 357 357 356 356 355 354 353 352 351 348 346 342 334 320 297
330 331 333 335 336 337 339 340 341 341 342 344 345 346 347 347 348 349 350 352 353 354 355 355 356 358 359 360 0 -0 360 359 359 358 358 358 358 357 357 356 353 348 337 311
329 330 332 334 336 337 338 340 341 342 343 344 346 347 347 348 349 350 351 352 354 355 356 357 358 359 0 2 3 3 2 2 2 2 2 3 3 4 4 4 3 360 355 337
328 330 332 333 335 337 338 340 341 342 343 345 346 348 348 349 350 351 352 353 355 356 357 358 359 1 2 4 4 5 5 4 4 5 6 7 8 9 10 10 10 9 6 360
327 329 331 333 335 337 338 340 341 342 344 345 347 348 349 350 351 351 352 354 355 357 358 359 0 2 4 5 6 6 6 7 7 8 9 10 12 13 15 16 16 17 16 14
326 328 330 333 335 337 338 340 341 343 344 346 348 349 350 351 351 352 353 354 356 357 358 360 1 3 5 6 7 8 8 9 10 11 12 13 14 16 18 20 21 22 24 24
325 327 329 332 335 337 338 340 342 343 344 346 348 349 350 351 352 353 354 355 356 358 359 0 2 4 5 6 8 9 10 11 13 14 14 15 16 18 19 21 24 26 28 29
324 326 329 332 334 336 338 340 342 343 345 347 348 350 351 352 353 353 355 356 357 358 360 1 2 4 5 7 8 9 11 13 15 16 16 17 18 20 21 23 25 27 29 31
322 325 328 331 334 336 338 340 341 343 345 347 348 350 351 352 352 354 355 357 358 360 1 2 3 4 5 8 9 10 12 14 16 17 18 19 20 21 23 24 25 27 29 31
321 324 327 331 334 336 338 340 341 343 345 347 348 350 351 352 353 354 355 357 358 0 2 3 4 4 6 8 10 11 13 15 17 18 19 20 22 23 24 25 26 27 28 30
320 324 327 330 333 336 338 339 341 343 345 347 348 350 351 352 353 355 356 357 359 1 3 4 5 6 8 9 11 13 15 17 18 19 20 21 23 24 25 26 27 27 28 29
319 323 326 329 333 335 337 338 340 342 345 346 348 349 350 352 353 354 356 357 359 2 4 6 7 8 9 9 12 14 16 17 18 19 20 22 23 24 26 27 28 28 29 29
318 322 325 329 332 334 336 338 339 342 344 346 347 348 350 351 353 354 355 357 360 3 6 8 9 10 10 11 13 15 17 18 19 20 21 22 23 24 26 27 28 28 29 29
317 321 325 328 331 333 335 337 338 341 343 345 346 348 349 351 352 353 354 357 359 3 6 8 10 11 12 13 15 16 17 18 19 20 21 23 24 25 26 27 28 28 28 29
316 320 323 327 329 332 334 336 337 339 341 343 345 346 348 349 351 352 354 356 359 2 6 9 11 13 14 15 16 17 18 18 19 20 21 23 24 24 25 26 27 28 28 28
315 319 322 325 328 330 332 334 336 338 340 342 344 345 346 348 349 351 353 354 357 0 4 8 12 14 16 17 18 18 18 19 19 19 21 22 23 24 24 25 26 26 27 28
314 317 321 324 326 329 331 332 334 336 338 340 342 343 344 346 348 349 351 352 354 357 1 6 10 14 16 18 18 19 19 19 19 19 20 21 22 22 23 24 25 25 26 26
313 316 319 322 325 327 329 330 332 334 336 338 340 341 342 343 346 347 348 349 350 353 357 2 6 10 13 15 17 18 18 19 19 19 19 19 21 21 21 22 23 24 25 25
312 315 317 320 323 325 326 328 330 332 334 336 338 339 339 341 343 345 345 346 347 348 351 355 0 4 8 10 13 15 16 17 17 18 18 18 19 20 19 20 22 23 24 25
Height
5832 5827 5821 5815 5808 5801 5791 5780 5769 5756 5743 5729 5714 5699 5684 5669 5654 5639 5625 5612 5598 5584 5571 5558 5546 5535 5524 5513 5502 5491 5480 5469 5458 5447 5437 5427 5418 5410 5402 5395 5389 5385 5381 5379
5829 5823 5818 5811 5803 5794 5784 5773 5762 5749 5736 5721 5706 5691 5676 5661 5647 5633 5619 5605 5591 5577 5565 5553 5541 5530 5519 5507 5496 5484 5473 5462 5450 5439 5429 5419 5409 5401 5392 5385 5378 5372 5368 5365
5823 5817 5813 5804 5796 5787 5778 5766 5754 5742 5729 5714 5700 5685 5670 5655 5641 5627 5612 5598 5585 5572 5560 5548 5537 5526 5514 5502 5490 5478 5466 5454 5443 5432 5422 5411 5402 5392 5384 5375 5368 5361 5356 5352
5816 5812 5805 5801 5790 5780 5770 5760 5747 5734 5721 5707 5693 5678 5663 5649 5635 5621 5607 5593 5580 5568 5556 5544 5533 5521 5508 5496 5484 5472 5459 5448 5436 5426 5415 5404 5394 5384 5374 5365 5357 5350 5343 5338
5810 5804 5800 5793 5783 5773 5764 5753 5741 5728 5714 5700 5686 5672 5658 5644 5629 5615 5601 5588 5575 5564 5552 5540 5529 5516 5504 5491 5478 5466 5453 5441 5430 5419 5408 5397 5385 5374 5363 5353 5344 5336 5329 5324
5806 5799 5793 5788 5778 5767 5758 5747 5735 5722 5708 5694 5680 5667 5653 5637 5623 5608 5595 5582 5571 5560 5549 5537 5525 5513 5500 5487 5474 5461 5448 5436 5424 5412 5400 5388 5375 5362 5350 5339 5328 5318 5311 5306
5802 5795 5789 5780 5770 5761 5752 5742 5728 5714 5701 5688 5674 5660 5646 5631 5617 5603 5590 5578 5567 5556 5545 5534 5522 5510 5497 5483 5470 5457 5444 5431 5418 5405 5392 5379 5365 5350 5335 5322 5310 5299 5292 5288
5794 5787 5782 5773 5765 5757 5747 5734 5721 5708 5695 5682 5667 5653 5639 5625 5611 5598 5586 5575 5564 5553 5542 5531 5520 5508 5495 5481 5467 5454 5440 5427 5414 5400 5386 5371 5355 5339 5323 5307 5292 5281 5274 5271
5791 5786 5778 5769 5760 5751 5740 5729 5716 5703 5690 5676 5663 5649 5635 5621 5608 5596 5584 5573 5562 5551 5540 5529 5517 5506 5493 5479 5466 5452 5438 5424 5411 5396 5381 5365 5348 5330 5313 5295 5280 5268 5261 5258
5786 5779 5772 5764 5755 5745 5734 5723 5710 5698 5685 5671 5657 5644 5631 5618 5605 5593 5581 5571 5560 5549 5539 5528 5516 5504 5492 5478 5464 5451 5437 5423 5409 5395 5379 5362 5344 5325 5306 5288 5273 5261 5254 5250
5781 5774 5767 5759 5750 5740 5729 5717 5705 5692 5679 5666 5653 5639 5627 5614 5601 5590 5579 5569 5559 5548 5537 5527 5515 5504 5491 5478 5465 5451 5437 5423 5409 5394 5378 5361 5342 5323 5304 5286 5270 5258 5251 5247
5776 5769 5762 5754 5745 5735 5724 5712 5700 5687 5674 5661 5648 5635 5623 5611 5599 5587 5577 5567 5557 5546 5536 5526 5515 5503 5491 5478 5465 5452 5438 5424 5410 5395 5379 5363 5345 5326 5307 5290 5274 5260 5252 5247
5770 5763 5756 5748 5739 5729 5718 5707 5695 5682 5670 5657 5644 5632 5620 5608 5596 5585 5575 5565 5556 5546 5536 5525 5515 5503 5491 5479 5466 5453 5439 5425 5411 5396 5381 5365 5350 5333 5316 5298 5281 5267 5256 5250
5764 5758 5750 5742 5734 5724 5713 5702 5690 5678 5665 5653 5641 5628 5617 5605 5594 5583 5573 5564 5554 5545 5535 5525 5515 5504 5492 5480 5468 5455 5441 5427 5413 5398 5384 5369 5354 5338 5323 5307 5292 5277 5265 5256
5759 5752 5745 5737 5728 5719 5708 5696 5685 5673 5661 5649 5637 5625 5614 5603 5592 5582 5572 5563 5553 5544 5535 5525 5515 5505 5493 5482 5470 5457 5444 5431 5416 5402 5388 5374 5360 5345 5331 5316 5302 5289 5276 5266
5753 5746 5739 5731 5723 5713 5702 5691 5680 5668 5656 5645 5633 5622 5611 5601 5591 5582 5572 5563 5554 5544 5535 5526 5516 5506 5495 5484 5472 5460 5447 5434 5420 5407 5394 5381 5367 5354 5340 5327 5314 5301 5290 5279
5747 5741 5734 5726 5717 5708 5697 5686 5675 5664 5652 5641 5630 5619 5608 5598 5589 5580 5571 5562 5554 5545 5535 5526 5517 5507 5497 5486 5475 5463 5451 5438 5426 5413 5401 5388 5375 5362 5349 5336 5324 5313 5302 5291
5741 5735 5728 5720 5711 5702 5692 5681 5670 5659 5648 5638 5627 5617 5606 5596 5587 5577 5568 5560 5552 5544 5535 5526 5517 5508 5498 5488 5478 5467 5455 5443 5431 5420 5408 5395 5383 5370 5358 5346 5334 5323 5313 5303
5735 5729 5722 5714 5706 5696 5686 5676 5666 5655 5645 5634 5624 5614 5605 5595 5586 5577 5568 5560 5552 5543 5535 5526 5518 5510 5500 5491 5481 5470 5459 5448 5437 5426 5414 5403 5391 5379 5367 5356 5344 5333 5323 5314
5728 5722 5715 5708 5700 5690 5681 5671 5661 5651 5641 5631 5621 5612 5603 5594 5585 5577 5569 5561 5553 5545 5537 5528 5520 5511 5503 5494 5484 5473 5463 5453 5442 5432 5421 5410 5399 5388 5376 5365 5354 5343 5333 5324
5722 5716 5709 5702 5694 5685 5675 5666 5656 5647 5637 5628 5618 5609 5601 5592 5583 5575 5568 5561 5553 5545 5538 5530 5521 5513 5505 5496 5486 5477 5467 5458 5448 5438 5428 5418 5407 5396 5385 5374 5364 5353 5343 5334
5715 5709 5702 5695 5687 5679 5670 5661 5651 5642 5633 5624 5615 5607 5599 5591 5582 5575 5567 5560 5553 5546 5539 5531 5523 5515 5507 5498 5489 5480 5471 5462 5453 5444 5435 5425 5414 5404 5394 5383 5373 5363 5353 5343
5708 5702 5696 5689 5681 5673 5664 5655 5646 5638 5629 5621 5612 5604 5596 5589 5581 5574 5567 5560 5553 5546 5540 5533 5525 5517 5509 5501 5492 5484 5475 5467 5458 5450 5440 5431 5421 5412 5402 5392 5382 5372 5362 5353
5700 5695 5689 5682 5674 5666 5658 5650 5641 5633 5625 5617 5609 5601 5594 5586 5579 5572 5565 5559 5553 5547 5540 5534 5527 5519 5512 5504 5496 5488 5479 5471 5463 5455 5446 5437 5428 5419 5410 5400 5390 5381 5371 5362
5693 5688 5681 5675 5668 5660 5652 5644 5636 5628 5621 5613 5606 5598 5591 5584 5578 5571 5564 5558 5552 5546 5541 5534 5528 5521 5514 5507 5499 5491 5483 5475 5467 5459 5451 5443 5434 5425 5417 5408 5398 5389 5380 5371
5685 5680 5674 5668 5661 5653 5646 5638 5631 5624 5616 5609 5602 5595 5588 5581 5575 5569 5562 5557 5551 5546 5540 5535 5529 5523 5516 5509 5502 5495 5487 5479 5472 5464 5456 5448 5440 5432 5424 5415 5406 5397 5388 5379
5677 5672 5666 5660 5653 5646 5639 5632 5625 5618 5612 5605 5598 5591 5585 5578 5572 5566 5561 5555 5550 5544 5539 5534 5529 5523 5518 5511 5504 5497 5490 5483 5476 5468 5461 5453 5445 5437 5430 5421 5413 5405 5396 5387